This demonstration page uses our WeatherBlox Daily Observations layout. Learn more.

Left ArrowRight Arrow

38.80484, -77.04692

Hourly Observations for December 9, 2021

Temp ( °F °C ) Dew Point ( °F °C ) Humidity (%) Winds ( mph kmh ) Pressure ( in mb ) Visibility ( mi km ) Precip ( " mm )
12:52 am 00:52 Clear 37 2.8 20 -6.7 50 50 NNW 13 20 30.12 1020 10 16 0.00 0.00
1:52 am 01:52 Partly Cloudy 34 1.1 20 -6.7 56 56 NNW 9 15 30.13 1020 10 16 0.00 0.00
2:52 am 02:52 Mostly Cloudy 34 1.1 20 -6.7 56 56 NNW 7 11 30.16 1022 10 16 0.00 0.00
3:52 am 03:52 Mostly Cloudy 32 0 20 -6.7 61 61 NNW 9 15 30.18 1022 10 16 0.00 0.00
4:52 am 04:52 Partly Cloudy 32 0 20 -6.7 61 61 SW 5 7 30.22 1023 10 16 0.00 0.00
5:52 am 05:52 Partly Cloudy 33 0.6 22 -5.6 64 64 S 3 6 30.20 1023 10 16 0.00 0.00
6:52 am 06:52 Mostly Cloudy 32 0 21 -6.1 64 64 WSW 5 7 30.24 1024 10 16 0.00 0.00
7:52 am 07:52 Mostly Cloudy 34 1.1 21 -6.1 59 59 Calm 30.27 1025 10 16 0.00 0.00
8:52 am 08:52 Partly Cloudy 37 2.8 24 -4.4 59 59 Calm 30.27 1025 10 16 0.00 0.00
9:52 am 09:52 Mostly Cloudy 41 5 22 -5.6 47 47 VRB 7 11 30.29 1026 10 16 0.00 0.00
10:52 am 10:52 Cloudy 43 6.1 21 -6.1 42 42 NNE 5 7 30.29 1026 10 16 0.00 0.00
11:52 am 11:52 Cloudy 42 5.6 21 -6.1 43 43 E 3 6 30.26 1025 10 16 0.00 0.00
12:52 pm 12:52 Cloudy 42 5.6 21 -6.1 43 43 S 3 6 30.26 1025 10 16 0.00 0.00
1:52 pm 13:52 Cloudy 43 6.1 21 -6.1 42 42 S 7 11 30.23 1024 10 16 0.00 0.00
2:52 pm 14:52 Cloudy 43 6.1 21 -6.1 42 42 S 6 9 30.23 1024 10 16 0.00 0.00
3:52 pm 15:52 Sunny 43 6.1 21 -6.1 42 42 S 7 11 30.22 1023 10 16 0.00 0.00
4:52 pm 16:52 Mostly Cloudy 41 5 23 -5 49 49 SSW 12 19 30.23 1024 10 16 0.00 0.00
5:52 pm 17:52 Mostly Cloudy 41 5 22 -5.6 47 47 S 10 17 30.24 1024 10 16 0.00 0.00
6:52 pm 18:52 Mostly Cloudy 40 4.4 23 -5 51 51 SSE 9 15 30.24 1024 10 16 0.00 0.00
7:52 pm 19:52 Mostly Cloudy 40 4.4 24 -4.4 53 53 SSE 7 11 30.24 1024 10 16 0.00 0.00
8:52 pm 20:52 Mostly Cloudy 39 3.9 26 -3.3 60 60 SSE 10 17 30.24 1024 10 16 0.00 0.00
9:52 pm 21:52 Mostly Cloudy 40 4.4 28 -2.2 63 63 S 13 20 30.20 1023 10 16 0.00 0.00
10:52 pm 22:52 Mostly Cloudy 39 3.9 29 -1.7 67 67 S 12 19 30.19 1023 10 16 0.00 0.00
11:52 pm 23:52 Mostly Cloudy 39 3.9 29 -1.7 67 67 S 12 19 30.17 1022 10 16 0.00 0.00

Powered by AerisWeather